"read_dt","SO2 (ppb)","flags","PMT voltage (V)","lamp voltage (V)","lamp intensity (Hz)","internal temp (C)","react chamber temp (C)","sample flow (l/min)","pres (mmHg)","SO2 bkg (ppb)","SO2 coefficient"
2013-10-27 00:00:00,1201E-4,5C000000,-0724,0960,11011,025.1,045.2,0.396,734.6,01.18,0.508
2013-10-27 00:01:00,1868E-4,5C000000,-0724,0960,11023,025.1,045.2,0.397,734.7,01.18,0.508
2013-10-27 00:02:00,6992E-5,5C000000,-0724,0961,10862,025.1,045.3,0.397,734.7,01.18,0.508
2013-10-27 00:03:00,9540E-5,5C000000,-0724,0961,11037,025.1,045.2,0.396,734.6,01.18,0.508
2013-10-27 00:04:00,1047E-4,5C000000,-0724,0960,10837,025.1,045.2,0.396,734.6,01.18,0.508
2013-10-27 00:05:00,1577E-4,5C000000,-0724,0960,10855,025.1,045.2,0.396,734.5,01.18,0.508
2013-10-27 00:06:00,1438E-4,5C000000,-0724,0961,11049,025.1,045.3,0.396,734.6,01.18,0.508
2013-10-27 00:07:00,1450E-4,5C000000,-0724,0960,10992,025.1,045.3,0.396,734.6,01.18,0.508
2013-10-27 00:08:00,9604E-5,5C000000,-0724,0960,10935,025.1,045.2,0.396,734.5,01.18,0.508
2013-10-27 00:09:00,1201E-4,5C000000,-0724,0960,10812,025.1,045.2,0.396,734.6,01.18,0.508
2013-10-27 00:10:00,2158E-5,5C000000,-0724,0960,10923,025.1,045.3,0.396,734.5,01.18,0.508
2013-10-27 00:11:00,8736E-5,5C000000,-0724,0961,10872,025.1,045.2,0.397,734.5,01.18,0.508
2013-10-27 00:12:00,1854E-4,5C000000,-0724,0960,10934,025.1,045.3,0.396,734.6,01.18,0.508
2013-10-27 00:13:00,1612E-4,5C000000,-0724,0961,11023,025.1,045.2,0.396,734.6,01.18,0.508
2013-10-27 00:14:00,8405E-5,5C000000,-0724,0960,10875,025.1,045.3,0.396,734.6,01.18,0.508
2013-10-27 00:15:00,1488E-4,5C000000,-0724,0960,10962,025.1,045.3,0.396,734.5,01.18,0.508
2013-10-27 00:16:00,9761E-5,5C000000,-0724,0960,10939,025.1,045.2,0.396,734.7,01.18,0.508
2013-10-27 00:17:00,2206E-4,5C000000,-0724,0961,10943,025.1,045.3,0.396,734.7,01.18,0.508
2013-10-27 00:18:00,1986E-4,5C000000,-0724,0961,10917,025.1,045.3,0.396,734.6,01.18,0.508
2013-10-27 00:19:00,1074E-4,5C000000,-0724,0961,10959,025.1,045.2,0.396,734.7,01.18,0.508
2013-10-27 00:20:00,1501E-4,5C000000,-0724,0961,10985,025.1,045.3,0.397,734.6,01.18,0.508
2013-10-27 00:21:00,2046E-4,5C000000,-0724,0960,10768,025.1,045.2,0.397,734.7,01.18,0.508
2013-10-27 00:22:00,1672E-4,5C000000,-0724,0961,10969,025.1,045.3,0.396,734.7,01.18,0.508
2013-10-27 00:23:00,9528E-5,5C000000,-0724,0960,10915,025.1,045.2,0.396,734.7,01.18,0.508
2013-10-27 00:24:00,1067E-4,5C000000,-0724,0960,11088,025.1,045.3,0.396,734.7,01.18,0.508
2013-10-27 00:25:00,2167E-4,5C000000,-0724,0961,11023,025.1,045.3,0.396,734.7,01.18,0.508
2013-10-27 00:26:00,1536E-4,5C000000,-0724,0960,10918,025.1,045.2,0.396,734.7,01.18,0.508
2013-10-27 00:27:00,9710E-5,5C000000,-0724,0961,10936,025.1,045.2,0.396,734.7,01.18,0.508
2013-10-27 00:28:00,1213E-4,5C000000,-0724,0960,10827,025.1,045.2,0.396,734.7,01.18,0.508
2013-10-27 00:29:00,1530E-4,5C000000,-0724,0960,10972,025.1,045.3,0.396,734.6,01.18,0.508
2013-10-27 00:30:00,1690E-4,5C000000,-0724,0961,10962,025.1,045.2,0.396,734.6,01.18,0.508
2013-10-27 00:31:00,2717E-5,5C000000,-0724,0960,11001,025.1,045.2,0.396,734.7,01.18,0.508
2013-10-27 00:32:00,1596E-4,5C000000,-0724,0961,10899,025.1,045.2,0.396,734.6,01.18,0.508
2013-10-27 00:33:00,2204E-4,5C000000,-0724,0961,10882,025.1,045.3,0.397,734.5,01.18,0.508
2013-10-27 00:34:00,1132E-4,5C000000,-0724,0961,10854,025.1,045.3,0.397,734.7,01.18,0.508
2013-10-27 00:35:00,1576E-4,5C000000,-0724,0960,10960,025.1,045.2,0.396,734.5,01.18,0.508
2013-10-27 00:36:00,9726E-5,5C000000,-0724,0960,10899,025.1,045.2,0.396,734.5,01.18,0.508
2013-10-27 00:37:00,8419E-5,5C000000,-0724,0960,10966,025.1,045.2,0.396,734.5,01.18,0.508
2013-10-27 00:38:00,1086E-4,5C000000,-0724,0961,10843,025.1,045.3,0.396,734.5,01.18,0.508
2013-10-27 00:39:00,1519E-4,5C000000,-0724,0960,10947,025.1,045.3,0.396,734.4,01.18,0.508
2013-10-27 00:40:00,1735E-4,5C000000,-0724,0960,10949,025.1,045.3,0.396,734.4,01.18,0.508
2013-10-27 00:41:00,7536E-5,5C000000,-0724,0960,10831,025.1,045.3,0.396,734.4,01.18,0.508
2013-10-27 00:42:00,1905E-4,5C000000,-0724,0960,10970,025.1,045.3,0.396,734.4,01.18,0.508
2013-10-27 00:43:00,1838E-4,5C000000,-0724,0961,10909,025.1,045.2,0.396,734.5,01.18,0.508
2013-10-27 00:44:00,9319E-5,5C000000,-0724,0960,10969,025.1,045.2,0.396,734.4,01.18,0.508
2013-10-27 00:45:00,8138E-5,5C000000,-0724,0960,10930,025.1,045.2,0.396,734.5,01.18,0.508
2013-10-27 00:46:00,6925E-5,5C000000,-0724,0960,11023,025.1,045.2,0.396,734.5,01.18,0.508
2013-10-27 00:47:00,1747E-4,5C000000,-0724,0960,10834,025.1,045.3,0.396,734.5,01.18,0.508
2013-10-27 00:48:00,1360E-4,5C000000,-0724,0960,10922,025.1,045.3,0.396,734.6,01.18,0.508
2013-10-27 00:49:00,1528E-4,5C000000,-0724,0960,10960,025.1,045.3,0.396,734.5,01.18,0.508
2013-10-27 00:50:00,1272E-4,5C000000,-0724,0960,11020,025.1,045.2,0.396,734.6,01.18,0.508
2013-10-27 00:51:00,1596E-4,5C000000,-0724,0960,10938,025.2,045.2,0.396,734.6,01.18,0.508
2013-10-27 00:52:00,5401E-5,5C000000,-0724,0960,10895,025.1,045.2,0.396,734.5,01.18,0.508
2013-10-27 00:53:00,1754E-4,5C000000,-0724,0960,10967,025.2,045.2,0.396,734.4,01.18,0.508
2013-10-27 00:54:00,1654E-4,5C000000,-0724,0960,10936,025.1,045.2,0.396,734.5,01.18,0.508
2013-10-27 00:55:00,1646E-4,5C000000,-0724,0960,10799,025.1,045.2,0.396,734.5,01.18,0.508
2013-10-27 00:56:00,1437E-4,5C000000,-0724,0960,10948,025.2,045.2,0.396,734.6,01.18,0.508
2013-10-27 00:57:00,1407E-4,5C000000,-0724,0960,11000,025.2,045.2,0.396,734.5,01.18,0.508
2013-10-27 00:58:00,1151E-4,5C000000,-0724,0962,10920,025.2,045.3,0.396,734.6,01.18,0.508
2013-10-27 00:59:00,1693E-4,5C000000,-0724,0960,10967,025.2,045.2,0.396,734.5,01.18,0.508
2013-10-27 01:00:00,2374E-4,5C000000,-0724,0961,10933,025.2,045.2,0.396,734.5,01.18,0.508
2013-10-27 01:01:00,7214E-5,5C000000,-0724,0960,10975,025.2,045.2,0.396,734.5,01.18,0.508
2013-10-27 01:02:00,9184E-5,5C000000,-0724,0959,10949,025.2,045.2,0.396,734.5,01.18,0.508
2013-10-27 01:03:00,2219E-4,5C000000,-0724,0959,10904,025.2,045.3,0.396,734.6,01.18,0.508
2013-10-27 01:04:00,8469E-5,5C000000,-0724,0960,10688,025.2,045.2,0.396,734.5,01.18,0.508
2013-10-27 01:05:00,6537E-5,5C000000,-0724,0960,10965,025.2,045.3,0.396,734.6,01.18,0.508
2013-10-27 01:06:00,1390E-4,5C000000,-0724,0960,10961,025.2,045.2,0.396,734.6,01.18,0.508
2013-10-27 01:07:00,9984E-5,5C000000,-0724,0959,10980,025.2,045.3,0.396,734.6,01.18,0.508
2013-10-27 01:08:00,1463E-4,5C000000,-0724,0960,10973,025.2,045.2,0.396,734.6,01.18,0.508
2013-10-27 01:09:00,1571E-4,5C000000,-0724,0960,10953,025.2,045.2,0.396,734.5,01.18,0.508
2013-10-27 01:10:00,1316E-4,5C000000,-0724,0960,10861,025.2,045.2,0.396,734.6,01.18,0.508
2013-10-27 01:11:00,2083E-4,5C000000,-0724,0960,10939,025.2,045.2,0.396,734.6,01.18,0.508
2013-10-27 01:12:00,5804E-5,5C000000,-0724,0960,10926,025.2,045.2,0.396,734.6,01.18,0.508
2013-10-27 01:13:00,1620E-4,5C000000,-0724,0960,10851,025.2,045.2,0.396,734.6,01.18,0.508
2013-10-27 01:14:00,6018E-5,5C000000,-0724,0961,10727,025.2,045.3,0.396,734.6,01.18,0.508
2013-10-27 01:15:00,1470E-4,5C000000,-0724,0961,10979,025.2,045.3,0.396,734.5,01.18,0.508
2013-10-27 01:16:00,1684E-4,5C000000,-0724,0960,11001,025.2,045.2,0.396,734.6,01.18,0.508
2013-10-27 01:17:00,1653E-4,5C000000,-0724,0961,11078,025.2,045.2,0.396,734.6,01.18,0.508
2013-10-27 01:18:00,1417E-4,5C000000,-0724,0960,10924,025.2,045.3,0.396,734.6,01.18,0.508
2013-10-27 01:19:00,1928E-4,5C000000,-0724,0960,10794,025.2,045.2,0.396,734.6,01.18,0.508
2013-10-27 01:20:00,6409E-5,5C000000,-0724,0960,10714,025.2,045.2,0.396,734.5,01.18,0.508
2013-10-27 01:21:00,1785E-4,5C000000,-0724,0961,10881,025.2,045.3,0.396,734.6,01.18,0.508
2013-10-27 01:22:00,1367E-4,5C000000,-0724,0960,10948,025.2,045.3,0.396,734.5,01.18,0.508
2013-10-27 01:23:00,1499E-4,5C000000,-0724,0961,10974,025.2,045.3,0.396,734.5,01.18,0.508
2013-10-27 01:24:00,1506E-4,5C000000,-0724,0960,10849,025.2,045.3,0.396,734.5,01.18,0.508
2013-10-27 01:25:00,1100E-4,5C000000,-0724,0959,10843,025.2,045.2,0.396,734.5,01.18,0.508
2013-10-27 01:26:00,1951E-4,5C000000,-0724,0960,10791,025.2,045.2,0.396,734.5,01.18,0.508
2013-10-27 01:27:00,1031E-4,5C000000,-0724,0960,10861,025.2,045.2,0.396,734.5,01.18,0.508
2013-10-27 01:28:00,2377E-4,5C000000,-0724,0959,10787,025.2,045.3,0.396,734.5,01.18,0.508
2013-10-27 01:29:00,1733E-4,5C000000,-0724,0960,10828,025.2,045.2,0.396,734.5,01.18,0.508
2013-10-27 01:30:00,1265E-4,5C000000,-0724,0960,10868,025.2,045.2,0.396,734.5,01.18,0.508
2013-10-27 01:31:00,1097E-4,5C000000,-0724,0960,10928,025.2,045.2,0.396,734.6,01.18,0.508
2013-10-27 01:32:00,1587E-4,5C000000,-0724,0961,11092,025.2,045.2,0.396,734.5,01.18,0.508
2013-10-27 01:33:00,2619E-4,5C000000,-0724,0960,10880,025.2,045.2,0.396,734.5,01.18,0.508
2013-10-27 01:34:00,1739E-4,5C000000,-0724,0960,10882,025.2,045.2,0.396,734.5,01.18,0.508
2013-10-27 01:35:00,2132E-4,5C000000,-0724,0960,10961,025.2,045.2,0.396,734.5,01.18,0.508
2013-10-27 01:36:00,2410E-4,5C000000,-0724,0960,10853,025.2,045.2,0.396,734.5,01.18,0.508
2013-10-27 01:37:00,3650E-5,5C000000,-0724,0960,10916,025.2,045.3,0.396,734.5,01.18,0.508
2013-10-27 01:38:00,2029E-4,5C000000,-0724,0960,10927,025.2,045.2,0.396,734.4,01.18,0.508
2013-10-27 01:39:00,1180E-4,5C000000,-0724,0960,10876,025.2,045.3,0.396,734.4,01.18,0.508
2013-10-27 01:40:00,1318E-4,5C000000,-0724,0961,10925,025.2,045.3,0.396,734.5,01.18,0.508
2013-10-27 01:41:00,1193E-4,5C000000,-0724,0960,10836,025.2,045.3,0.396,734.5,01.18,0.508
2013-10-27 01:42:00,1359E-4,5C000000,-0724,0961,10981,025.2,045.2,0.396,734.5,01.18,0.508
2013-10-27 01:43:00,8168E-5,5C000000,-0724,0960,10911,025.2,045.2,0.396,734.5,01.18,0.508
2013-10-27 01:44:00,1491E-4,5C000000,-0724,0961,10995,025.2,045.3,0.396,734.4,01.18,0.508
2013-10-27 01:45:00,3650E-5,5C000000,-0724,0961,10868,025.2,045.2,0.396,734.4,01.18,0.508
2013-10-27 01:46:00,1335E-4,5C000000,-0724,0960,10919,025.2,045.2,0.396,734.4,01.18,0.508
2013-10-27 01:47:00,1125E-4,5C000000,-0724,0960,10882,025.3,045.3,0.396,734.4,01.18,0.508
2013-10-27 01:48:00,2003E-4,5C000000,-0724,0961,10817,025.2,045.3,0.396,734.4,01.18,0.508
2013-10-27 01:49:00,8909E-5,5C000000,-0724,0961,10757,025.2,045.3,0.396,734.4,01.18,0.508
2013-10-27 01:50:00,1380E-4,5C000000,-0724,0960,10861,025.2,045.3,0.396,734.4,01.18,0.508
2013-10-27 01:51:00,1987E-4,5C000000,-0724,0961,10924,025.2,045.2,0.396,734.4,01.18,0.508
2013-10-27 01:52:00,1357E-4,5C000000,-0724,0960,11001,025.2,045.2,0.396,734.5,01.18,0.508
2013-10-27 01:53:00,2117E-4,5C000000,-0724,0959,11049,025.2,045.3,0.396,734.5,01.18,0.508
2013-10-27 01:54:00,5712E-5,5C000000,-0724,0960,10896,025.2,045.3,0.396,734.5,01.18,0.508
2013-10-27 01:55:00,1891E-4,5C000000,-0724,0960,10940,025.2,045.3,0.396,734.4,01.18,0.508
2013-10-27 01:56:00,1407E-4,5C000000,-0724,0960,10915,025.2,045.3,0.396,734.4,01.18,0.508
2013-10-27 01:57:00,9438E-5,5C000000,-0724,0959,10987,025.2,045.2,0.396,734.4,01.18,0.508
2013-10-27 01:58:00,1599E-4,5C000000,-0724,0960,10995,025.2,045.3,0.396,734.4,01.18,0.508
2013-10-27 01:59:00,1708E-4,5C000000,-0724,0960,10935,025.3,045.2,0.396,734.3,01.18,0.508
2013-10-27 02:00:00,1217E-4,5C000000,-0724,0960,10965,025.2,045.2,0.396,734.3,01.18,0.508
2013-10-27 02:01:00,1465E-4,5C000000,-0724,0960,10806,025.3,045.2,0.395,734.3,01.18,0.508
2013-10-27 02:02:00,1350E-4,5C000000,-0724,0960,10970,025.3,045.2,0.396,734.3,01.18,0.508
2013-10-27 02:03:00,2818E-4,5C000000,-0724,0961,10950,025.3,045.2,0.396,734.4,01.18,0.508
2013-10-27 02:04:00,2060E-4,5C000000,-0724,0960,11003,025.3,045.3,0.396,734.3,01.18,0.508
2013-10-27 02:05:00,1790E-4,5C000000,-0724,0960,10928,025.3,045.2,0.396,734.3,01.18,0.508
2013-10-27 02:06:00,1569E-4,5C000000,-0724,0960,10885,025.3,045.2,0.396,734.3,01.18,0.508
2013-10-27 02:07:00,1983E-4,5C000000,-0724,0960,10862,025.3,045.2,0.395,734.3,01.18,0.508
2013-10-27 02:08:00,2078E-4,5C000000,-0724,0961,10962,025.3,045.3,0.396,734.3,01.18,0.508
2013-10-27 02:09:00,2524E-4,5C000000,-0724,0960,10885,025.3,045.3,0.396,734.3,01.18,0.508
2013-10-27 02:10:00,1139E-4,5C000000,-0724,0961,11050,025.3,045.2,0.396,734.1,01.19,0.508
2013-10-27 02:11:00,1818E-4,5C000000,-0724,0961,10922,025.3,045.3,0.396,734.2,01.18,0.508
2013-10-27 02:12:00,4632E-5,5C000000,-0724,0960,10743,025.3,045.3,0.396,734.2,01.18,0.508
2013-10-27 02:13:00,1538E-4,5C000000,-0724,0961,10891,025.3,045.3,0.396,734.2,01.18,0.508
2013-10-27 02:14:00,1928E-4,5C000000,-0724,0960,10852,025.3,045.3,0.395,734.1,01.19,0.508
2013-10-27 02:15:00,1045E-4,5C000000,-0724,0959,11043,025.3,045.3,0.396,734.1,01.19,0.508
2013-10-27 02:16:00,1632E-4,5C000000,-0724,0960,10926,025.3,045.3,0.396,734.1,01.19,0.508
2013-10-27 02:17:00,1500E-4,5C000000,-0724,0960,10922,025.3,045.2,0.396,734.2,01.18,0.508
2013-10-27 02:18:00,1363E-4,5C000000,-0724,0960,10846,025.3,045.2,0.396,734.3,01.18,0.508
2013-10-27 02:19:00,2185E-4,5C000000,-0724,0960,10960,025.3,045.2,0.396,734.1,01.19,0.508
2013-10-27 02:20:00,2236E-4,5C000000,-0724,0960,10984,025.3,045.3,0.395,734.3,01.18,0.508
2013-10-27 02:21:00,1694E-4,5C000000,-0724,0961,11023,025.3,045.3,0.396,734.2,01.18,0.508
2013-10-27 02:22:00,1225E-4,5C000000,-0724,0960,10933,025.3,045.2,0.396,734.2,01.18,0.508
2013-10-27 02:23:00,2108E-4,5C000000,-0724,0961,11009,025.3,045.3,0.396,734.2,01.18,0.508
2013-10-27 02:24:00,2622E-4,5C000000,-0724,0961,10935,025.3,045.3,0.396,734.2,01.18,0.508
2013-10-27 02:25:00,1046E-4,5C000000,-0724,0961,10915,025.3,045.3,0.396,734.3,01.18,0.508
2013-10-27 02:26:00,9984E-5,5C000000,-0724,0960,10921,025.3,045.3,0.395,734.3,01.18,0.508
2013-10-27 02:27:00,2713E-4,5C000000,-0724,0961,10849,025.3,045.2,0.396,734.2,01.18,0.508
2013-10-27 02:28:00,1962E-4,5C000000,-0724,0960,10899,025.3,045.3,0.396,734.2,01.18,0.508
2013-10-27 02:29:00,2349E-4,5C000000,-0724,0960,10861,025.3,045.3,0.396,734.2,01.18,0.508
2013-10-27 02:30:00,1486E-4,5C000000,-0724,0960,10803,025.3,045.3,0.396,734.2,01.18,0.508
2013-10-27 02:31:00,1772E-4,5C000000,-0724,0960,11018,025.3,045.3,0.395,734.2,01.18,0.508
2013-10-27 02:32:00,2507E-4,5C000000,-0724,0960,10956,025.3,045.3,0.395,734.2,01.18,0.508
2013-10-27 02:33:00,1703E-4,5C000000,-0724,0960,10889,025.3,045.2,0.395,734.2,01.18,0.508
2013-10-27 02:34:00,1489E-4,5C000000,-0724,0960,11035,025.3,045.2,0.396,734.1,01.19,0.508
2013-10-27 02:35:00,1335E-4,5C000000,-0724,0961,10863,025.3,045.2,0.396,734.1,01.19,0.508
2013-10-27 02:36:00,2401E-4,5C000000,-0724,0960,10894,025.3,045.2,0.396,734.0,01.19,0.508
2013-10-27 02:37:00,1228E-4,5C000000,-0724,0960,10820,025.3,045.3,0.395,734.1,01.19,0.508
2013-10-27 02:38:00,2093E-4,5C000000,-0724,0960,10813,025.3,045.3,0.395,734.0,01.19,0.508
2013-10-27 02:39:00,2104E-4,5C000000,-0724,0960,10922,025.3,045.2,0.395,734.1,01.19,0.508
2013-10-27 02:40:00,3181E-4,5C000000,-0724,0960,10958,025.3,045.2,0.396,734.0,01.19,0.508
2013-10-27 02:41:00,1150E-4,5C000000,-0724,0961,10850,025.3,045.2,0.396,734.0,01.19,0.508
2013-10-27 02:42:00,8049E-5,5C000000,-0724,0961,11026,025.3,045.3,0.396,734.0,01.19,0.508
2013-10-27 02:43:00,2371E-4,5C000000,-0724,0960,10891,025.3,045.2,0.395,734.0,01.19,0.508
2013-10-27 02:44:00,3277E-5,5C000000,-0724,0960,10828,025.3,045.3,0.395,733.9,01.19,0.508
2013-10-27 02:45:00,1130E-4,5C000000,-0724,0960,10838,025.3,045.2,0.395,733.9,01.19,0.508
2013-10-27 02:46:00,1852E-4,5C000000,-0724,0959,10760,025.3,045.2,0.396,733.9,01.19,0.508
2013-10-27 02:47:00,1580E-4,5C000000,-0724,0961,10990,025.3,045.3,0.396,733.8,01.19,0.508
2013-10-27 02:48:00,2154E-4,5C000000,-0724,0961,10841,025.4,045.3,0.395,733.9,01.19,0.508
2013-10-27 02:49:00,1483E-4,5C000000,-0724,0961,10953,025.3,045.3,0.395,733.9,01.19,0.508
2013-10-27 02:50:00,2002E-4,5C000000,-0724,0961,10972,025.4,045.3,0.396,733.7,01.19,0.508
2013-10-27 02:51:00,1162E-4,5C000000,-0724,0959,11031,025.3,045.2,0.396,733.7,01.19,0.508
2013-10-27 02:52:00,2658E-4,5C000000,-0724,0961,10959,025.3,045.2,0.395,733.7,01.19,0.508
2013-10-27 02:53:00,8810E-5,5C000000,-0724,0960,10891,025.4,045.3,0.395,733.8,01.19,0.508
2013-10-27 02:54:00,1325E-4,5C000000,-0724,0961,11013,025.4,045.3,0.395,733.7,01.19,0.508
2013-10-27 02:55:00,2152E-4,5C000000,-0724,0961,10989,025.4,045.3,0.396,733.8,01.19,0.508
2013-10-27 02:56:00,1366E-4,5C000000,-0724,0960,10956,025.4,045.3,0.395,733.8,01.19,0.508
2013-10-27 02:57:00,5141E-5,5C000000,-0724,0961,10959,025.4,045.2,0.395,733.7,01.19,0.508
2013-10-27 02:58:00,1792E-4,5C000000,-0724,0961,10922,025.4,045.2,0.395,733.6,01.19,0.508
2013-10-27 02:59:00,1240E-4,5C000000,-0724,0961,10874,025.4,045.3,0.396,733.4,01.19,0.508
2013-10-27 03:00:00,1850E-4,5C000000,-0724,0961,10888,025.4,045.3,0.395,733.6,01.19,0.508
2013-10-27 03:01:00,2417E-4,5C000000,-0724,0960,10949,025.3,045.3,0.395,733.6,01.19,0.508
2013-10-27 03:02:00,1601E-4,5C000000,-0724,0960,10896,025.4,045.3,0.395,733.5,01.19,0.508
2013-10-27 03:03:00,1033E-4,5C000000,-0724,0960,10844,025.4,045.2,0.395,733.6,01.19,0.508
2013-10-27 03:04:00,1736E-4,5C000000,-0724,0960,11013,025.4,045.2,0.396,733.5,01.19,0.508
2013-10-27 03:05:00,1768E-4,5C000000,-0724,0961,11002,025.4,045.2,0.395,733.5,01.19,0.508
2013-10-27 03:06:00,1574E-4,5C000000,-0724,0961,10936,025.4,045.3,0.395,733.5,01.19,0.508
2013-10-27 03:07:00,1163E-4,5C000000,-0724,0960,10852,025.4,045.3,0.395,733.5,01.19,0.508
2013-10-27 03:08:00,3075E-4,5C000000,-0724,0961,10939,025.4,045.3,0.396,733.4,01.19,0.508
2013-10-27 03:09:00,2553E-4,5C000000,-0724,0960,10935,025.4,045.3,0.395,733.2,01.19,0.508
2013-10-27 03:10:00,2268E-4,5C000000,-0724,0960,11002,025.4,045.2,0.395,733.3,01.19,0.508
2013-10-27 03:11:00,2286E-4,5C000000,-0724,0961,10962,025.4,045.3,0.395,733.3,01.19,0.508
2013-10-27 03:12:00,1292E-4,5C000000,-0724,0961,10935,025.4,045.3,0.395,733.3,01.19,0.508
2013-10-27 03:13:00,1281E-4,5C000000,-0724,0960,10884,025.4,045.3,0.395,733.3,01.19,0.508
2013-10-27 03:14:00,1791E-4,5C000000,-0724,0960,10955,025.4,045.2,0.395,733.1,01.19,0.508
2013-10-27 03:15:00,2186E-4,5C000000,-0724,0960,11035,025.4,045.3,0.395,733.2,01.19,0.508
2013-10-27 03:16:00,2079E-4,5C000000,-0724,0961,11102,025.4,045.3,0.395,733.2,01.19,0.508
2013-10-27 03:17:00,1380E-4,5C000000,-0724,0960,10888,025.4,045.3,0.395,733.2,01.19,0.508
2013-10-27 03:18:00,1769E-4,5C000000,-0724,0961,10849,025.4,045.2,0.395,733.2,01.19,0.508
2013-10-27 03:19:00,1710E-4,5C000000,-0724,0960,10911,025.4,045.3,0.395,733.1,01.19,0.508
2013-10-27 03:20:00,1438E-4,5C000000,-0724,0961,11035,025.4,045.2,0.395,733.0,01.19,0.508
2013-10-27 03:21:00,1891E-4,5C000000,-0724,0960,10882,025.4,045.2,0.395,733.2,01.19,0.508
2013-10-27 03:22:00,1561E-4,5C000000,-0724,0961,10883,025.4,045.2,0.395,733.0,01.19,0.508
2013-10-27 03:23:00,1564E-4,5C000000,-0724,0959,11005,025.4,045.3,0.395,733.0,01.19,0.508
2013-10-27 03:24:00,2387E-4,5C000000,-0724,0961,10947,025.4,045.3,0.395,733.0,01.19,0.508
2013-10-27 03:25:00,2034E-4,5C000000,-0724,0960,10876,025.4,045.2,0.395,732.8,01.19,0.508
2013-10-27 03:26:00,1087E-4,5C000000,-0724,0961,10870,025.4,045.2,0.395,732.8,01.19,0.508
2013-10-27 03:27:00,1661E-4,5C000000,-0724,0961,10933,025.4,045.2,0.395,733.0,01.19,0.508
2013-10-27 03:28:00,2364E-4,5C000000,-0724,0960,10957,025.4,045.2,0.395,732.6,01.19,0.508
2013-10-27 03:29:00,1457E-4,5C000000,-0724,0961,10924,025.4,045.2,0.394,732.3,01.19,0.508
2013-10-27 03:30:00,2896E-4,5C000000,-0724,0960,10942,025.4,045.3,0.395,732.7,01.19,0.508
2013-10-27 03:31:00,1913E-4,5C000000,-0724,0960,10854,025.4,045.2,0.395,732.6,01.19,0.508
2013-10-27 03:32:00,2327E-4,5C000000,-0724,0961,10868,025.4,045.2,0.394,732.7,01.19,0.508
2013-10-27 03:33:00,1249E-4,5C000000,-0724,0961,10776,025.4,045.3,0.395,732.2,01.19,0.508
2013-10-27 03:34:00,2339E-4,5C000000,-0724,0961,10926,025.4,045.2,0.395,732.2,01.19,0.508
2013-10-27 03:35:00,2890E-4,5C000000,-0724,0961,10961,025.4,045.3,0.394,732.3,01.19,0.508
2013-10-27 03:36:00,1497E-4,5C000000,-0724,0961,10818,025.4,045.2,0.394,732.1,01.19,0.508
2013-10-27 03:37:00,1920E-4,5C000000,-0724,0961,10843,025.4,045.2,0.395,732.0,01.19,0.508
2013-10-27 03:38:00,2477E-4,5C000000,-0724,0960,10850,025.4,045.2,0.395,732.4,01.19,0.508
2013-10-27 03:39:00,1926E-4,5C000000,-0724,0960,10946,025.3,045.3,0.394,732.3,01.19,0.508
2013-10-27 03:40:00,2402E-4,5C000000,-0724,0961,10960,025.4,045.3,0.395,732.2,01.19,0.508
2013-10-27 03:41:00,2014E-4,5C000000,-0724,0961,10891,025.3,045.2,0.395,732.2,01.19,0.508
2013-10-27 03:42:00,1776E-4,5C000000,-0724,0960,11054,025.3,045.2,0.394,732.2,01.19,0.508
2013-10-27 03:43:00,1665E-4,5C000000,-0724,0961,10897,025.3,045.3,0.394,731.9,01.19,0.508
2013-10-27 03:44:00,1936E-4,5C000000,-0724,0961,10836,025.3,045.3,0.395,732.1,01.19,0.508
2013-10-27 03:45:00,2123E-4,5C000000,-0724,0961,10870,025.3,045.2,0.395,731.8,01.19,0.508
2013-10-27 03:46:00,1969E-4,5C000000,-0724,0961,10939,025.3,045.2,0.394,732.2,01.19,0.508
2013-10-27 03:47:00,1528E-4,5C000000,-0724,0960,10939,025.3,045.3,0.394,731.9,01.19,0.508
2013-10-27 03:48:00,1750E-4,5C000000,-0724,0961,10986,025.3,045.3,0.395,732.0,01.19,0.508
2013-10-27 03:49:00,1455E-4,5C000000,-0724,0960,10718,025.3,045.3,0.394,731.9,01.19,0.508
2013-10-27 03:50:00,2106E-4,5C000000,-0724,0961,11080,025.3,045.3,0.394,732.0,01.19,0.508
2013-10-27 03:51:00,1905E-4,5C000000,-0724,0960,10994,025.3,045.2,0.395,731.9,01.19,0.508
2013-10-27 03:52:00,1577E-4,5C000000,-0724,0960,10976,025.3,045.2,0.395,732.2,01.19,0.508
2013-10-27 03:53:00,2286E-4,5C000000,-0724,0961,10911,025.3,045.3,0.394,732.1,01.19,0.508
2013-10-27 03:54:00,2249E-4,5C000000,-0724,0960,10930,025.3,045.3,0.394,732.0,01.19,0.508
2013-10-27 03:55:00,1179E-4,5C000000,-0724,0960,10912,025.3,045.2,0.395,732.0,01.19,0.508
2013-10-27 03:56:00,1769E-4,5C000000,-0724,0960,10892,025.3,045.2,0.395,732.1,01.19,0.508
2013-10-27 03:57:00,1439E-4,5C000000,-0724,0961,10849,025.3,045.3,0.394,732.0,01.19,0.508
2013-10-27 03:58:00,4829E-5,5C000000,-0724,0961,10810,025.3,045.2,0.395,732.2,01.19,0.508
2013-10-27 03:59:00,1435E-4,5C000000,-0724,0960,10989,025.3,045.2,0.395,732.0,01.19,0.508
2013-10-27 04:00:00,1685E-4,5C000000,-0724,0960,10904,025.3,045.2,0.395,732.0,01.19,0.508
2013-10-27 04:01:00,1700E-4,5C000000,-0724,0960,10797,025.3,045.2,0.394,732.0,01.19,0.508
2013-10-27 04:02:00,2895E-4,5C000000,-0724,0961,10924,025.2,045.2,0.395,731.9,01.19,0.508
2013-10-27 04:03:00,2010E-4,5C000000,-0724,0960,10865,025.2,045.3,0.395,731.9,01.19,0.508
2013-10-27 04:04:00,1955E-4,5C000000,-0724,0961,10765,025.3,045.3,0.394,732.2,01.19,0.508
2013-10-27 04:05:00,2258E-4,5C000000,-0724,0960,11007,025.2,045.3,0.394,732.2,01.19,0.508
2013-10-27 04:06:00,1827E-4,5C000000,-0724,0961,10907,025.2,045.2,0.395,732.4,01.19,0.508
2013-10-27 04:07:00,2221E-4,5C000000,-0724,0961,10888,025.2,045.2,0.395,732.0,01.19,0.508
2013-10-27 04:08:00,1333E-4,5C000000,-0724,0961,10851,025.2,045.2,0.395,732.3,01.19,0.508
2013-10-27 04:09:00,1352E-4,5C000000,-0724,0960,10837,025.2,045.3,0.395,732.0,01.19,0.508
2013-10-27 04:10:00,2650E-4,5C000000,-0724,0961,10808,025.2,045.3,0.395,732.2,01.19,0.508
2013-10-27 04:11:00,2871E-4,5C000000,-0724,0960,10798,025.2,045.2,0.395,732.4,01.19,0.508
2013-10-27 04:12:00,1578E-4,5C000000,-0724,0960,11034,025.2,045.3,0.394,732.2,01.19,0.508
2013-10-27 04:13:00,2890E-4,5C000000,-0724,0961,11007,025.2,045.2,0.395,732.3,01.19,0.508
2013-10-27 04:14:00,1880E-4,5C000000,-0724,0961,11005,025.2,045.2,0.395,732.4,01.19,0.508
2013-10-27 04:15:00,2769E-4,5C000000,-0724,0960,10874,025.2,045.2,0.395,732.4,01.19,0.508
2013-10-27 04:16:00,2492E-4,5C000000,-0724,0961,10923,025.2,045.2,0.395,732.3,01.19,0.508
2013-10-27 04:17:00,1994E-4,5C000000,-0724,0961,10997,025.2,045.2,0.395,732.3,01.19,0.508
2013-10-27 04:18:00,2614E-4,5C000000,-0724,0960,10951,025.2,045.2,0.395,732.4,01.19,0.508
2013-10-27 04:19:00,1551E-4,5C000000,-0724,0961,10901,025.2,045.2,0.395,732.4,01.19,0.508
2013-10-27 04:20:00,1715E-4,5C000000,-0724,0960,10898,025.2,045.3,0.394,732.2,01.19,0.508